Language selection

Features

My Weather Profile Weather Topics  | 

Coats - northern half: Past 24 Hour Conditions

 

Arviat Airport

07:00 PM CST 12 November 2019
Disclaimer

This table is a summary of hourly weather conditions for the past 24 hours.
Please note that these observations might not always be representative of weather conditions over their associated marine area.

Date / Time
(CST)
Wind(knots) Conditions Visibility(km) Pressure(kPa) Air tempC) Relative humidity(%) Dew pointC) Wind Chill
12 November 2019
19:00 W 5 Partly Cloudy 16 100.4 -17 87 -18 -23
18:00 WSW 5 Mostly Cloudy 16 100.4 -16 87 -18 -22
17:00 SW 6 Mainly Clear 24 100.4 -17 87 -18 -24
16:00 WSW 6 Mainly Clear 24 100.4 -16 85 -18 -23
15:00 WSW 9 Mostly Cloudy 24 100.4 -15 84 -17 -24
14:00 SW 10 Mostly Cloudy 24 100.3 -15 83 -17 -23
13:00 SW 11 Mostly Cloudy 24 100.4 -14 83 -17 -23
12:00 SW 11 Mostly Cloudy 24 100.4 -14 83 -16 -23
11:00 SW 12 Mostly Cloudy 24 100.4 -14 82 -16 -23
10:00 SW 11 Mostly Cloudy 24 100.5 -13 83 -16 -22
9:00 SW 15 Mostly Cloudy 24 100.5 -13 83 -15 -23
8:00 SSW 15 Mostly Cloudy 24 100.6 -12 84 -15 -22
7:00 SSW 16 Mostly Cloudy 24 100.6 -12 84 -15 -23
6:00 SSW 18 Cloudy 16 100.7 -13 84 -15 -23
5:00 SSW 18 gust 23 Cloudy 16 100.8 -13 83 -15 -23
4:00 SSW 19 gust 24 Cloudy 16 100.8 -13 82 -15 -24
3:00 SSW 18 gust 23 Cloudy 16 100.9 -13 83 -15 -24
2:00 SSW 20 Light Snow 16 101.0 -13 85 -16 -25
1:00 SSW 20 Cloudy 16 101.1 -14 85 -16 -25
0:00 SSW 20 Light Snow 16 101.2 -15 86 -17 -27
11 November 2019
23:00 SSW 17 Light Snow 16 101.3 -16 86 -18 -27
22:00 SSW 15 Light Snow 16 101.5 -17 86 -19 -28
21:00 SSW 17 Clear 16 101.6 -17 85 -19 -29
20:00 SSW 15 Light Snow 16 101.7 -18 85 -20 -30
19:00 SSW 13 Clear 16 101.8 -19 85 -21 -30

Zoom-in to make a selection

Map of Hudson - Hudson Bay marine weather areas Arviat Airport Baker Lake Airport Chesterfield Inlet Airport Coral Harbour Airport Rankin Inlet Airport Sanikiluaq Airport Whale Cove Airport Cape Dorset Airport Iqaluit Airport Wager Bay Kimmirut Airport Churchill Airport Fort Severn Airport Peawanuck Airport Moosonee Airport Eastmain Airport La Grande Rivière Airport Waskaganish Airport Wemindji Airport Akulivik Airport Inukjuak Airport Ivujivik Airport Kuujjuarapik Airport Puvirnituq Airport Umiujaq Airport Aupaluk Airport Kangiqsujuaq Airport Kangirsuk Airport Kangiqsualujjuaq Airport Kuujjuaq Airport Quaqtaq Airport Salluit Airport Tasiujaq Airport Cape Kakkiviak
Legend:
buoy Buoy
land station Land Station

Hudson - Hudson Bay Area

Another Region

What we are doing

Date modified: